Weather History for KADM - November, 2011

Change the Weather History Date:

Tuesday, November 1, 2011

  Actual Average (KADH) Record (KADH)
Temperature  
Mean Temperature 62 °F -  
Max Temperature 73 °F 70 °F - (-1)
Min Temperature 51 °F 47 °F - (-1)
Degree Days  
Heating Degree Days 3    
Growing Degree Days 12 (Base 50)    
Moisture  
Dew Point 46 °F    
Average Humidity 67    
Maximum Humidity 77    
Minimum Humidity 44    
Precipitation  
Precipitation 0.00 in - - ()
Sea Level Pressure  
Sea Level Pressure 30.05 in    
Wind  
Wind Speed 4 mph (SE)    
Max Wind Speed 16 mph    
Max Gust Speed 24 mph    
Visibility 10 miles    
Events      
Averages and records for this station are not official NWS values.
T = Trace of Precipitation, MM = Missing Value Source: NWS Daily Summary

Daily Weather History Graph

Daily Weather History Graph

Search for Another Location

Airport or City:

Trip Planner

Search our weather history database for the weather conditions in past years. The results will help you decide how hot, cold, wet, or windy it might be!

Date:

Astronomy

Nov. 01, 2011 Rise Set
Actual Time 7:47 AM CDT 6:34 PM CDT
Civil Twilight 7:21 AM CDT 7:00 PM CDT
Nautical Twilight 6:52 AM CDT 7:30 PM CDT
Astronomical Twilight 6:22 AM CDT 7:59 PM CDT
Moon 1:32 PM CDT (11/1) No Moon Set
Length of Visible Light 11h 39m
Length of Day
10h 47m
Waxing Crescent, 40% of the Moon is Illuminated
Nov 1
Waxing Crescent
Nov 2
First Quarter
Nov 10
Full
Nov 18
Last Quarter
Nov 25
New

Hourly Weather History & Observations

Time (CDT) Temp. Dew Point Humidity Pressure Visibility Wind Dir Wind Speed Gust Speed Precip Events Conditions
12:15 AM 55.4 °F 46.4 °F 72% 30.07 in 10.0 mi SE 4.6 mph - N/A   Clear
12:35 AM 55.4 °F 46.4 °F 72% 30.07 in 10.0 mi SE 3.5 mph - N/A   Clear
12:55 AM 53.6 °F 44.6 °F 72% 30.07 in 10.0 mi Calm Calm - N/A   Clear
1:15 AM 53.6 °F 46.4 °F 77% 30.07 in 10.0 mi Calm Calm - N/A   Clear
1:35 AM 53.6 °F 44.6 °F 72% 30.07 in 10.0 mi Calm Calm - N/A   Clear
1:55 AM 53.6 °F 44.6 °F 72% 30.07 in 10.0 mi ESE 3.5 mph - N/A   Clear
2:15 AM 53.6 °F 44.6 °F 72% 30.07 in 10.0 mi East 3.5 mph - N/A   Clear
2:35 AM 53.6 °F 46.4 °F 77% 30.07 in 10.0 mi East 3.5 mph - N/A   Clear
2:55 AM 51.8 °F 44.6 °F 76% 30.07 in 10.0 mi East 4.6 mph - N/A   Clear
3:15 AM 53.6 °F 46.4 °F 77% 30.07 in 10.0 mi ESE 3.5 mph - N/A   Clear
3:35 AM 55.4 °F 46.4 °F 72% 30.07 in 10.0 mi ESE 4.6 mph - N/A   Clear
3:55 AM 53.6 °F 44.6 °F 72% 30.07 in 10.0 mi SE 4.6 mph - N/A   Clear
4:15 AM 55.4 °F 44.6 °F 67% 30.07 in 10.0 mi ESE 3.5 mph - N/A   Clear
4:35 AM 55.4 °F 44.6 °F 67% 30.07 in 10.0 mi Calm Calm - N/A   Clear
4:55 AM 55.4 °F 44.6 °F 67% 30.07 in 10.0 mi SE 4.6 mph - N/A   Clear
5:15 AM 55.4 °F 44.6 °F 67% 30.07 in 10.0 mi SE 5.8 mph - N/A   Clear
5:35 AM 55.4 °F 44.6 °F 67% 30.07 in 10.0 mi SE 4.6 mph - N/A   Clear
5:55 AM 53.6 °F 44.6 °F 72% 30.07 in 10.0 mi SE 6.9 mph - N/A   Clear
6:15 AM 53.6 °F 44.6 °F 72% 30.07 in 10.0 mi SE 5.8 mph - N/A   Clear
6:35 AM 53.6 °F 44.6 °F 72% 30.07 in 10.0 mi SE 5.8 mph - N/A   Clear
6:55 AM 53.6 °F 44.6 °F 72% 30.07 in 10.0 mi SE 8.1 mph - N/A   Clear
7:55 AM 53.6 °F 46.4 °F 77% 30.08 in 10.0 mi East 6.9 mph - N/A   Clear
8:55 AM 57.2 °F 48.2 °F 72% 30.09 in 10.0 mi SE 3.5 mph - N/A   Clear
9:55 AM 62.6 °F 50.0 °F 63% 30.10 in 10.0 mi South 6.9 mph - N/A   Clear
10:55 AM 66.2 °F 50.0 °F 56% 30.10 in 10.0 mi South 11.5 mph - N/A   Clear
11:55 AM 69.8 °F 50.0 °F 49% 30.08 in 10.0 mi South 11.5 mph 24.2 mph N/A   Clear
12:55 PM 71.6 °F 51.8 °F 50% 30.05 in 10.0 mi South 12.7 mph 20.7 mph N/A   Clear
1:55 PM 73.4 °F 50.0 °F 44% 30.01 in 10.0 mi South 13.8 mph 19.6 mph N/A   Clear
4:55 PM 73.4 °F 50.0 °F 44% 29.97 in 10.0 mi SSE 16.1 mph 21.9 mph N/A   Clear
7:55 PM 64.4 °F 48.2 °F 56% 29.97 in 10.0 mi SE 6.9 mph - N/A   Clear
10:15 PM 60.8 °F 44.6 °F 55% 29.99 in 10.0 mi ESE 4.6 mph - N/A   Clear
10:35 PM 59.0 °F 44.6 °F 59% 29.98 in 10.0 mi ESE 3.5 mph - N/A   Clear
11:15 PM 55.4 °F 44.6 °F 67% 29.98 in 10.0 mi East 3.5 mph - N/A   Clear
11:35 PM 55.4 °F 44.6 °F 67% 29.98 in 10.0 mi East 3.5 mph - N/A   Clear
11:55 PM 55.4 °F 44.6 °F 67% 29.98 in 10.0 mi ESE 3.5 mph - N/A   Clear